Weather History for Ogallala, NE

Change the Weather History Date:

Thursday, February 13, 2014

  Actual Average Record
Temperature  
Mean Temperature 32 °F -  
Max Temperature 44 °F 43 °F 77 °F (1962)
Min Temperature 19 °F 16 °F -7 °F (1986)
Degree Days  
Heating Degree Days 34    
Moisture  
Dew Point 28 °F    
Average Humidity 77    
Maximum Humidity 91    
Minimum Humidity 62    
Precipitation  
Precipitation 0.03 in - - ()
Sea Level Pressure  
Sea Level Pressure 29.76 in    
Wind  
Wind Speed 7 mph (West)    
Max Wind Speed 28 mph    
Max Gust Speed 38 mph    
Visibility 10 miles    
Events Rain    
Averages and records for this station are not official NWS values.
T = Trace of Precipitation, MM = Missing Value Source: NWS Daily Summary

Daily Weather History Graph

Daily Weather History Graph

Search for Another Location

Airport:

Trip Planner

Search our weather history database for the weather conditions in past years. The results will help you decide how hot, cold, wet, or windy it might be!

Date:

Astronomy

Feb. 13, 2014 Rise Set
Actual Time 6:44 AM MST 5:18 PM MST
Civil Twilight 6:15 AM MST 5:47 PM MST
Nautical Twilight 5:43 AM MST 6:19 PM MST
Astronomical Twilight 5:11 AM MST 6:51 PM MST
Moon 4:29 PM MST (2/13) 5:38 AM MST (2/13)
Length of Visible Light 11h 31m
Length of Day
10h 34m
Waxing Gibbous, 99% of the Moon is Illuminated
Feb 13
Waxing Gibbous
Feb 14
Full
Feb 22
Last Quarter
Mar 1
New
Mar 8
First Quarter

Hourly Weather History & Observations

Time (MST) Temp. Windchill Dew Point Humidity Pressure Visibility Wind Dir Wind Speed Gust Speed Precip Events Conditions
12:15 AM 24.8 °F - 19.9 °F 82% 29.75 in 10.0 mi Calm Calm - N/A   Clear
12:35 AM 27.3 °F - 23.9 °F 87% 29.75 in 10.0 mi Calm Calm - N/A   Clear
12:55 AM 28.6 °F - 24.1 °F 83% 29.76 in 10.0 mi Calm Calm - N/A   Clear
1:15 AM 31.3 °F - 26.6 °F 83% 29.76 in 10.0 mi Calm Calm - N/A   Clear
1:35 AM 31.6 °F 27.0 °F 25.9 °F 79% 29.77 in 10.0 mi West 4.6 mph - N/A   Clear
1:55 AM 32.0 °F 26.4 °F 27.0 °F 82% 29.77 in 10.0 mi WSW 5.8 mph - N/A   Clear
2:15 AM 30.2 °F 21.3 °F 25.7 °F 83% 29.78 in 10.0 mi SW 10.4 mph - N/A   Clear
2:35 AM 31.1 °F 20.9 °F 26.1 °F 82% 29.78 in 10.0 mi WSW 13.8 mph - N/A   Clear
2:55 AM 28.6 °F 18.2 °F 24.4 °F 84% 29.78 in 10.0 mi West 12.7 mph - N/A   Clear
3:15 AM 26.1 °F 15.0 °F 22.1 °F 85% 29.79 in 10.0 mi WSW 12.7 mph - N/A   Clear
3:35 AM 26.6 °F 20.0 °F 22.8 °F 86% 29.79 in 10.0 mi WSW 5.8 mph - N/A   Clear
3:55 AM 28.6 °F 22.4 °F 25.2 °F 87% 29.79 in 10.0 mi SW 5.8 mph - N/A   Clear
4:15 AM 27.9 °F 24.0 °F 23.7 °F 84% 29.81 in 10.0 mi SW 3.5 mph - N/A   Clear
4:35 AM 28.6 °F 21.5 °F 24.4 °F 84% 29.80 in 10.0 mi SW 6.9 mph - N/A   Clear
4:55 AM 28.0 °F 20.8 °F 23.4 °F 83% 29.81 in 10.0 mi SW 6.9 mph - N/A   Clear
5:15 AM 26.4 °F 22.4 °F 22.8 °F 86% 29.82 in 10.0 mi West 3.5 mph - N/A   Clear
5:35 AM 28.6 °F 23.5 °F 25.0 °F 86% 29.83 in 10.0 mi West 4.6 mph - N/A   Clear
5:55 AM 25.9 °F 19.2 °F 22.5 °F 87% 29.82 in 10.0 mi West 5.8 mph - N/A   Clear
6:15 AM 23.9 °F 15.0 °F 21.2 °F 89% 29.83 in 10.0 mi West 8.1 mph - N/A   Clear
6:35 AM 22.3 °F 13.0 °F 19.8 °F 90% 29.84 in 10.0 mi WSW 8.1 mph - N/A   Clear
6:55 AM 19.9 °F 12.1 °F 17.6 °F 91% 29.84 in 10.0 mi West 5.8 mph - N/A   Clear
7:15 AM 21.2 °F 8.3 °F 18.7 °F 90% 29.85 in 10.0 mi West 13.8 mph - N/A   Clear
7:35 AM 24.3 °F 12.7 °F 21.2 °F 88% 29.85 in 10.0 mi West 12.7 mph - N/A   Clear
7:55 AM 26.8 °F 17.1 °F 23.0 °F 86% 29.85 in 10.0 mi West 10.4 mph - 0.01 in   Clear
8:15 AM 29.1 °F 20.6 °F 24.1 °F 81% 29.86 in 10.0 mi West 9.2 mph - N/A   Clear
8:35 AM 30.4 °F 22.9 °F 24.8 °F 80% 29.86 in 10.0 mi WSW 8.1 mph - N/A   Clear
8:55 AM 32.9 °F 28.5 °F 26.4 °F 77% 29.85 in 10.0 mi WSW 4.6 mph - N/A   Clear
9:15 AM 36.5 °F 33.9 °F 27.7 °F 70% 29.85 in 10.0 mi WSW 3.5 mph - N/A   Clear
9:35 AM 38.7 °F - 27.9 °F 65% 29.84 in 10.0 mi Calm Calm - N/A   Clear
9:55 AM 37.0 °F 31.0 °F 28.8 °F 72% 29.84 in 10.0 mi WSW 8.1 mph - N/A   Clear
10:15 AM 39.7 °F 34.3 °F 29.5 °F 67% 29.84 in 10.0 mi WSW 8.1 mph - N/A   Clear
10:35 AM 39.7 °F 36.5 °F 30.0 °F 68% 29.83 in 10.0 mi WSW 4.6 mph - N/A   Clear
10:55 AM 38.8 °F 34.6 °F 30.0 °F 71% 29.83 in 10.0 mi West 5.8 mph - N/A   Clear
11:15 AM 40.1 °F 36.9 °F 30.2 °F 68% 29.80 in 10.0 mi West 4.6 mph - N/A   Clear
11:35 AM 41.0 °F 35.8 °F 30.2 °F 65% 29.79 in 10.0 mi West 8.1 mph - N/A   Clear
11:55 AM 39.9 °F 35.1 °F 30.6 °F 69% 29.79 in 10.0 mi West 6.9 mph - N/A   Clear
12:35 PM 41.4 °F 36.8 °F 31.1 °F 67% 29.77 in 10.0 mi West 6.9 mph - N/A   Clear
12:55 PM 42.3 °F 37.9 °F 31.6 °F 66% 29.75 in 10.0 mi West 6.9 mph - N/A   Clear
1:15 PM 40.1 °F 35.3 °F 31.5 °F 71% 29.75 in 10.0 mi WSW 6.9 mph - N/A   Clear
1:35 PM 41.4 °F 39.4 °F 31.8 °F 69% 29.74 in 10.0 mi WSW 3.5 mph - N/A   Clear
1:55 PM 43.5 °F 38.3 °F 31.6 °F 63% 29.73 in 10.0 mi SW 9.2 mph - N/A   Mostly Cloudy
2:15 PM 43.5 °F 38.9 °F 31.8 °F 63% 29.72 in 10.0 mi WSW 8.1 mph - N/A   Scattered Clouds
2:35 PM 44.2 °F 40.3 °F 31.8 °F 62% 29.71 in 10.0 mi WSW 6.9 mph - N/A   Clear
2:55 PM 43.5 °F 38.9 °F 31.6 °F 63% 29.70 in 10.0 mi WSW 8.1 mph - N/A   Clear
3:15 PM 43.3 °F 37.7 °F 31.8 °F 64% 29.69 in 10.0 mi WSW 10.4 mph - N/A   Clear
3:35 PM 42.3 °F 36.8 °F 32.0 °F 67% 29.69 in 10.0 mi WSW 9.2 mph - N/A   Clear
3:55 PM 41.9 °F 36.3 °F 32.0 °F 68% 29.68 in 10.0 mi WSW 9.2 mph - N/A   Clear
4:15 PM 40.3 °F 34.4 °F 31.8 °F 72% 29.69 in 10.0 mi West 9.2 mph - N/A   Clear
4:35 PM 38.7 °F 32.9 °F 31.8 °F 76% 29.68 in 10.0 mi West 8.1 mph - N/A   Clear
4:55 PM 38.7 °F 31.4 °F 31.6 °F 76% 29.68 in 10.0 mi WNW 11.5 mph - N/A   Clear
5:15 PM 38.7 °F 30.9 °F 31.8 °F 76% 29.67 in 10.0 mi West 12.7 mph - N/A   Clear
5:35 PM 37.4 °F 29.3 °F 32.0 °F 81% 29.68 in 10.0 mi West 12.7 mph - N/A   Clear
5:55 PM 36.9 °F 29.6 °F 31.6 °F 81% 29.67 in 10.0 mi West 10.4 mph - N/A   Clear
6:15 PM 35.8 °F 28.8 °F 31.3 °F 84% 29.67 in 10.0 mi West 9.2 mph - N/A   Clear
6:35 PM 35.8 °F 27.8 °F 31.5 °F 84% 29.67 in 10.0 mi West 11.5 mph - N/A   Clear
6:55 PM 36.3 °F 28.9 °F 31.8 °F 84% 29.66 in 10.0 mi West 10.4 mph - N/A   Clear
7:15 PM 36.9 °F 29.1 °F 31.6 °F 81% 29.66 in 10.0 mi West 11.5 mph - N/A   Clear
7:35 PM 36.5 °F 28.2 °F 31.1 °F 81% 29.66 in 10.0 mi West 12.7 mph - N/A   Clear
7:55 PM 36.9 °F 28.2 °F 31.1 °F 80% 29.65 in 10.0 mi West 13.8 mph - N/A   Clear
8:15 PM 37.6 °F 28.8 °F 31.5 °F 79% 29.66 in 10.0 mi West 15.0 mph - N/A   Clear
8:35 PM 39.4 °F 31.4 °F 31.8 °F 74% 29.68 in 10.0 mi West 13.8 mph 19.6 mph N/A   Scattered Clouds
8:55 PM 42.4 °F 34.4 °F 32.0 °F 67% 29.70 in 10.0 mi NW 17.3 mph 31.1 mph N/A   Scattered Clouds
9:15 PM 41.4 °F 33.3 °F 31.8 °F 69% 29.73 in 10.0 mi NNW 16.1 mph - N/A   Clear
9:35 PM 41.0 °F 32.5 °F 30.9 °F 67% 29.74 in 10.0 mi NNW 17.3 mph - N/A   Mostly Cloudy
9:55 PM 40.8 °F 30.2 °F 30.4 °F 66% 29.75 in 10.0 mi NNW 26.5 mph 38.0 mph N/A   Mostly Cloudy
10:15 PM 39.7 °F 29.7 °F 30.0 °F 68% 29.76 in 10.0 mi NNW 21.9 mph 26.5 mph N/A   Scattered Clouds
10:35 PM 40.1 °F 29.9 °F 30.7 °F 69% 29.76 in 10.0 mi NNW 23.0 mph 33.4 mph N/A   Mostly Cloudy
10:55 PM 38.7 °F 27.1 °F 31.5 °F 75% 29.78 in 10.0 mi NNW 27.6 mph 36.8 mph N/A   Light Drizzle
11:15 PM 36.7 °F 25.7 °F 32.0 °F 83% 29.79 in 7.0 mi NNW 21.9 mph 31.1 mph N/A Rain Light Rain
11:35 PM 36.0 °F 24.7 °F 32.4 °F 87% 29.81 in 5.0 mi NNW 21.9 mph - 0.01 in Rain Light Rain
11:55 PM 35.6 °F 24.8 °F 32.2 °F 87% 29.81 in 7.0 mi NNW 19.6 mph - 0.02 in Rain Light Rain